www.pogodaiklimat.ru

Погода и климат >> Архив погоды >> Россия >> Калужская область >> Спас-Деменск


ПОГОДА в Спас-Деменске

  • Прогноз погоды в Спас-Деменске
  • Монитор погоды в Спас-Деменске

АРХИВ ПОГОДЫ в Спас-Деменске

Время (UTC), дата Ветер
(напр.,м/с)
 
Видим.   Явления Облачность Т
(С)
Тd
(С)
f
(%)
Тe
(С)
Тes
(С)
Комфортность P
(гПа)
Po
(гПа)
Тmin
(С)
Tmax
(С)
R
(мм)
R24
(мм)
S
(см)
18 14.09 ЮЗ 2 10 км {ливн. осадки} 3/3 600 м
[Sc]
+7.3 +5.6 89 +5 +5 1020.5 991.4 +16.1 0.6
21 14.09 З 1 10 км 4/4 600 м
[Sc]
+7.2 +5.2 87 +6 +6 1020.3 991.3
00 15.09 З 2 10 км ясно +6.1 +4.7 91 +4 +4 1020.4 991.3
03 15.09 ЮЗ 1 13 км ясно +4.3 +3.7 96 +3 +3 1020.7 991.4 +4.3
06 15.09 З 2 15 км 4/3 600 м
[Sc Ci sp]
+8.1 +5.8 85 +6 +8 1020.2 991.3 +3.7
09 15.09 ЮЗ 3 15 км 8/6 600 м
[Sc Ci sp]
+13.2 +4.5 56 +12 +14 1018.3 989.9
12 15.09 ЮЗ 3 15 км 9/6 600 м
[Sc Ci sp]
+13.7 +3.3 49 +13 +14 1015.6 987.4
15 15.09 ЮЗ 2 15 км слаб. дождь 10/10 600 м
[Sc]
+10.9 +7.8 81 +10 +10 1013.2 984.7 +15.0 0.3
18 15.09 Ю 3 13 км в посл. час дождь 10/10 600 м
[Sc]
+10.3 +7.5 83 +8 +8 1009.5 981.1 +15.0 1
21 15.09 ЮЗ 3 13 км слаб. дождь 10/10 600 м
[Sc]
+10.9 +6.9 76 +9 +9 1007.1 978.9
00 16.09 ЮЗ 4
{11}
13 км слаб. дождь 10/10 300 м
[Frnb Ns]
+9.6 +8.0 90 +7 +7 1004.6 976.3
03 16.09 ЮЗ 4 12 км слаб. дождь 10/10 300 м
[Frnb Ns]
+9.8 +8.7 93 +7 +7 1003.1 974.9 +9.6 3
06 16.09 ЮЗ 4 15 км {дождь} 8/8 600 м
[Sc]
+11.1 +9.0 87 +9 +9 1001.9 973.8 +9.6 3
09 16.09 З 4 15 км 8/8 600 м
[Sc]
+14.0 +6.3 60 +13 +14 1001.1 973.3
12 16.09 З 4
{12}
15 км 8/8 600 м
[Sc]
+15.6 +6.8 56 +15 +15 1001.2 973.5
15 16.09 ЮЗ 3
{13}
15 км {ливн. осадки} 6/6 600 м
[Sc]
+12.9 +7.4 69 +12 +12 1002.0 974.1 +16.2 1
18 16.09 ЮЗ 2 10 км в посл. час ливневой дождь 4/4 300 м
[Cb cap]
+9.7 +7.3 85 +8 +8 1002.8 974.5 +16.2 0.8
21 16.09 ЮЗ 3 10 км 6/0 2000 м
[Ac trans]
+9.5 +7.0 84 +7 +7 1002.2 974.0
00 17.09 ЮЗ 2 10 км 4/0 2000 м
[Ac trans Ci sp]
+8.5 +6.4 87 +7 +7 1001.5 973.1
03 17.09 З 2 10 км 6/4 600 м
[Sc Ac trans]
+7.3 +5.5 88 +5 +5 1001.4 972.9 +7.3 0.8
06 17.09 З 3 15 км 8/8 600 м
[Sc]
+8.8 +5.5 80 +6 +7 1001.4 973.1 +7.0
09 17.09 З 4-10
{10}
15 км в посл. час ливневой дождь 8/8 300 м
[Cb cap]
+11.0 +4.9 66 +9 +10 1001.2 973.1
12 17.09 З 3
{12}
15 км в посл. час ливневой дождь 8/8 300 м
[Cb cap]
+11.0 +5.9 71 +9 +10 1001.4 973.3
15 17.09 З 2
{10}
15 км в посл. час ливневой дождь 6/6 300 м
[Cb cap]
+11.4 +4.6 63 +10 +11 1001.2 973.1 +12.8 0.5
18 17.09 ЮЗ 2 10 км {ливн. осадки} 6/6 600 м
[Sc]
+9.1 +4.8 74 +8 +8 1001.8 973.5 +12.8 0.5
21 17.09 ЮЗ 1 15 км 6/6 600 м
[Sc]
+5.6 +4.4 92 +4 +4 1001.5 972.8
00 18.09 Ю 1 9000 м дымка 6/6 600 м
[Sc]
+3.4 +3.0 97 +2 +2 1000.5 971.7
03 18.09 Ю 1 9000 м слаб. дождь 10/10 600 м
[Sc]
+6.0 +5.5 97 +5 +5 998.7 970.2 +3.2 0.3
06 18.09 Ю 1 11 км слаб. дождь 10/10 300 м
[Frnb Ns]
+7.4 +6.8 96 +6 +6 997.7 969.4 +3.2 2
09 18.09 ЮВ 1 15 км {дождь} 10/10 600 м
[Sc]
+8.7 +6.9 88 +8 +8 997.3 969.1
12 18.09 СВ 1 15 км {дождь} 9/9 600 м
[Sc]
+9.9 +6.5 79 +10 +10 997.0 968.9
15 18.09 СЗ 1 15 км в посл. час ливневой дождь 9/9 300 м
[Cb cap]
+8.3 +6.8 90 +7 +7 999.0 970.7 +10.3 1
18 18.09 З 2 13 км слаб. ливневой дождь 8/8 300 м
[Cb cap]
+6.8 +5.7 93 +4 +4 1002.2 973.6 +10.3 1
21 18.09 З 2 13 км {ливн. осадки} 8/8 600 м
[Sc]
+6.8 +6.1 95 +4 +4 1004.4 975.8
00 19.09 З 2 13 км {ливн. осадки} 8/0 2000 м
[Ac trans]
+5.6 +5.1 97 +3 +3 1007.0 978.2
03 19.09 З 2 12 км 10/10 600 м
[Sc]
+6.1 +5.4 95 +4 +4 1008.6 979.8 +5.6 1
06 19.09 З 2 13 км {дождь} 10/10 600 м
[Sc]
+7.0 +6.1 94 +5 +5 1010.5 981.8 +5.6 0.3
09 19.09 СЗ 2 15 км 10/10 600 м
[Sc]
+9.3 +6.0 80 +8 +8 1011.6 983.0
12 19.09 З 2 15 км в посл. час ливневой дождь 8/8 300 м
[Cb cap]
+9.6 +5.7 77 +8 +9 1012.3 983.7
15 19.09 ЮЗ 1 13 км в посл. час ливневой дождь 10/10 300 м
[Cb cap]
+7.1 +5.3 88 +6 +6 1013.4 984.6 +11.7 2
18 19.09 штиль 0 13 км {ливн. осадки} 8/8 300 м
[Cb cap]
+6.0 +5.3 95 +5 +5 1014.4 985.4 +11.7 2
21 19.09 ЮЗ 1 10 км 8/8 600 м
[Sc]
+6.0 +5.2 95 +5 +5 1014.2 985.2
00 20.09 З 2 13 км в посл. час дождь 9/9 600 м
[Sc]
+6.0 +5.5 97 +3 +3 1014.2 985.2
03 20.09 З 1 13 км {дождь} 9/9 600 м
[Sc]
+3.7 +3.2 97 +2 +2 1014.3 985.1 +3.6 0.0
06 20.09 З 2 9000 м дымка {дождь} 10/10 600 м
[Sc]
+4.7 +4.1 96 +2 +2 1014.5 985.4 +3.6 0.0
09 20.09 З 2 15 км 6/6 600 м
[Sc]
+8.0 +4.3 77 +6 +9 1014.4 985.6
12 20.09 СЗ 3 15 км 6/6 600 м
[Sc]
+8.6 +2.6 66 +6 +8 1014.3 985.5
15 20.09 СЗ 2 15 км {ливн. осадки} 6/6 300 м
[Cb cap]
+8.2 +3.0 70 +6 +7 1014.5 985.7 +9.4 0.3
18 20.09 СЗ 1 15 км {дождь} 3/3 600 м
[Sc]
+4.2 +1.7 84 +3 +3 1016.6 987.3 +9.4 0.0
21 20.09 СЗ 1 15 км 3/3 600 м
[Sc]
+2.5 +1.6 94 +1 +1 1017.4 987.9
00 21.09 СЗ 3 9000 м дымка 9/9 600 м
[Sc]
+1.5 +1.1 97 -3 -3 1017.8 988.3
03 21.09 СЗ 2 1800 м дымка 10/10 200 м
[St]
+1.2 +1.1 99 -2 -2 1018.7 989.1 +1.1
06 21.09 СЗ 1 5000 м в посл. час туман 10/10 300 м
[St]
+2.2 +2.0 99 0 0 1019.0 989.5 +1.1
09 21.09 З 3 15 км 8/6 600 м
[Sc Ci sp]
+7.6 +0.7 62 +5 +7 1017.5 988.6
12 21.09 ЮЗ 3 15 км слаб. дождь 10/10 600 м
[Sc]
+7.8 +0.9 62 +5 +5 1015.7 986.8
15 21.09 ЮЗ 3 15 км слаб. дождь 10/10 600 м
[Sc]
+6.3 +2.8 78 +3 +3 1012.9 983.9 +8.6

 

Местоположение метеостанции Спас-Деменск (Калужская область, Россия): широта 54.42 долгота 34.02 высота над уровнем моря 238 м.

В архиве по умолчанию представлена погода в Спас-Деменске за последнюю неделю. Архивные данные за месяц целиком и за предыдущие месяцы, начиная с января 2011 года, Вы можете получить, выбрав интересующий диапазон дат из раскрывающегося списка и нажав кнопку "Ввод!".


*Определитесь, кто Вы:
робот инопланетянин человек

Внимание! Время в таблицах - всемирное. Для получения местного времени необходимо прибавить поправку, которая равна 3 ч.

Смотрите также архив погоды в соседних городах и на ближайших метеорологических станциях:

Погода в Ельне (Смоленская область, Россия) (57 км)
Погода в Мосальске (Калужская область, Россия) (65 км)
Погода в Вязьме (Смоленская область, Россия) (87 км)
Погода в Жиздре (Калужская область, Россия) (88 км)
Погода в Сафоново (Смоленская область, Россия) (91 км)
Погода в Сухиничах (Калужская область, Россия) (93 км)
Погода в Рославле (Смоленская область, Россия) (95 км)
Погода в Жуковке (Брянская область, Россия) (101 км)
Погода в Починке (Смоленская область, Россия) (103 км)
Погода в Смоленске (Смоленская область, Россия) (131 км)

Пояснения к столбцам:

Ветер - указаны скорость ветра в м/с - средняя за 10 мин, порывы в срок и между сроками (в фигурных скобках) и направление, откуда дует ветер: С - северный, СВ - северо-восточный, В - восточный, ЮВ - юго-восточный, Ю - южный, ЮЗ - юго-западный, З - западный, СЗ - северо-западный.
Видимость - горизонтальная дальность видимости в метрах или километрах. При видимости от 1 до 10 км при отсутствии осадков обычно наблюдается дымка, при ухудшении видимости до 1 км и менее - туман. В сухую погоду видимость может ухудшаться дымом, пылью или мглою.
Явления - указаны атмосферные явления, наблюдавшиеся в срок или в последний час перед сроком; фигурными скобками обозначены явления, наблюдавшиеся между сроками (за 1-3 часа до срока); квадратными скобками обозначены град или гололедные отложения с указанием их диаметра в мм.
Облачность - указаны через наклонную черту общая и нижняя облачность в баллах и высота нижней границы облаков в метрах; квадратными скобками обозначены формы облаков: Ci - перистые, Cs - перисто-слоистые, Cc - перисто-кучевые, Ac - высококучевые, As - высокослоистые, Sc - слоисто-кучевые, Ns - слоисто-дождевые, Cu - кучевые, Cb - кучево-дождевые. Подробнее классификацию облаков см. в Атласе облаков (PDF).
T - Температура воздуха - температура, измеренная на высоте 2 м над землей.
Td - Температура точки росы - температура, при понижении до которой содержащийся в воздухе водяной пар достигнет насыщения.
f - Относительная влажность воздуха - влажноcть воздуха, измеренная на высоте 2 м над землей.
Te - Эффективная температура - температура, которую ощущает одетый по сезону человек в тени. Характеристика душности погоды. При расчете учитывается влияние влажности воздуха и скорости ветра на теплоощущения человека.
Tes - Эффективная температура на солнце - температура, которую ощущает человек, с поправкой на солнечный нагрев. Характеристика знойности погоды. Зависит от высоты солнца над горизонтом, облачности и скорости ветра. Ночью, в пасмурную погоду, а также при ветре 12 м/с и более поправка равна нулю.
P - Атмосферное давление - приведенное к уровню моря атмосферное давление.
Po - Атмосферное давление - измеренное на уровне метеостанции атмосферное давление.
Tmin - Минимальная температура - минимум температуры воздуха на высоте 2 м над землей.
Tmax - Максимальная температура - максимум температуры воздуха на высоте 2 м над землей.
R - Количество осадков - Количество выпавших осадков за период времени, мм. При наведении курсора мыши на число - период времени, за который выпало указанное количество осадков.
R24 - Количество осадков - Количество выпавших осадков за 24 часа, мм.
S - Снежный покров - Высота снежного покрова, см. При наведении курсора мыши на число - состояние снежного покрова и степень покрытия местности в баллах.